| time (UTC) | temp F | wind direction | speed MPH | gust MPH | rain 1hr in | rain 24hr in | rain mn in | humidity % | barometer mb |
| 20260506131548 | 69 | 63 | 1.0 | 6.0 | 0.00 | 0.00 | 0.00 | 66 | 1010.1 |
| 20260506131523 | 69 | 203 | 0.0 | 0.0 | 0.00 | 0.00 | 0.00 | 58 | 1008.2 |
| 20260506130048 | 69 | 58 | 1.0 | 6.0 | 0.00 | 0.00 | 0.00 | 67 | 1009.8 |
| 20260506130025 | 68 | 207 | 0.0 | 0.0 | 0.00 | 0.00 | 0.00 | 59 | 1008.0 |
| 20260506124544 | 68 | 32 | 0.0 | 5.0 | 0.00 | 0.00 | 0.00 | 69 | 1009.8 |
| 20260506124526 | 68 | 161 | 0.0 | 0.0 | 0.00 | 0.00 | 0.00 | 61 | 1008.0 |
| 20260506123044 | 67 | 72 | 1.0 | 7.0 | 0.00 | 0.00 | 0.00 | 70 | 1009.9 |
| 20260506123024 | 67 | 217 | 0.0 | 0.0 | 0.00 | 0.00 | 0.00 | 61 | 1008.1 |
| 20260506121542 | 67 | 337 | 1.0 | 8.0 | 0.00 | 0.00 | 0.00 | 70 | 1010.1 |
| 20260506121520 | 67 | 247 | 0.0 | 0.0 | 0.00 | 0.00 | 0.00 | 62 | 1008.1 |
| 20260506120045 | 67 | 64 | 2.0 | 5.0 | 0.00 | 0.00 | 0.00 | 70 | 1010.4 |
| 20260506120032 | 67 | 197 | 0.0 | 0.0 | 0.00 | 0.00 | 0.00 | 62 | 1008.5 |
| 20260506114549 | 67 | 109 | 0.0 | 8.0 | 0.00 | 0.00 | 0.00 | 72 | 1010.2 |
| 20260506114524 | 66 | 169 | 0.0 | 0.0 | 0.00 | 0.00 | 0.00 | 64 | 1008.5 |
| 20260506113040 | 66 | 25 | 1.0 | 6.0 | 0.00 | 0.00 | 0.00 | 73 | 1010.2 |
| 20260506113019 | 66 | 229 | 0.0 | 0.0 | 0.00 | 0.00 | 0.00 | 66 | 1008.5 |
| 20260506111542 | 65 | 68 | 0.0 | 5.0 | 0.00 | 0.00 | 0.00 | 75 | 1010.3 |
| 20260506111519 | 65 | 200 | 0.0 | 0.0 | 0.00 | 0.00 | 0.00 | 68 | 1008.5 |
| 20260506110037 | 65 | 91 | 0.0 | 3.0 | 0.00 | 0.00 | 0.00 | 76 | 1010.2 |
| 20260506110023 | 65 | 195 | 0.0 | 0.0 | 0.00 | 0.00 | 0.00 | 69 | 1008.3 |
| 20260506104542 | 65 | 65 | 0.0 | 2.0 | 0.00 | 0.00 | 0.00 | 76 | 1010.1 |
| 20260506104518 | 65 | 223 | 0.0 | 0.0 | 0.00 | 0.00 | 0.00 | 69 | 1008.3 |
| 20260506103035 | 65 | 77 | 0.0 | 4.0 | 0.00 | 0.00 | 0.00 | 76 | 1010.1 |
| 20260506103026 | 65 | 212 | 0.0 | 0.0 | 0.00 | 0.00 | 0.00 | 69 | 1008.4 |
| 20260506101536 | 65 | 70 | 1.0 | 4.0 | 0.00 | 0.00 | 0.00 | 76 | 1010.0 |
| 20260506101518 | 65 | 224 | 0.0 | 0.0 | 0.00 | 0.00 | 0.00 | 69 | 1008.2 |
| 20260506100038 | 65 | 77 | 0.0 | 4.0 | 0.00 | 0.00 | 0.00 | 77 | 1009.9 |
| 20260506100016 | 65 | 220 | 0.0 | 0.0 | 0.00 | 0.00 | 0.00 | 70 | 1008.1 |
| 20260506094532 | 64 | 113 | 0.0 | 2.0 | 0.00 | 0.00 | 0.00 | 77 | 1009.9 |
| 20260506094527 | 65 | 214 | 0.0 | 0.0 | 0.00 | 0.00 | 0.00 | 70 | 1008.1 |
| 20260506093052 | 65 | 46 | 1.0 | 4.0 | 0.00 | 0.00 | 0.00 | 77 | 1009.9 |
| 20260506093023 | 65 | 218 | 0.0 | 0.0 | 0.00 | 0.00 | 0.00 | 69 | 1008.1 |
| 20260506091529 | 65 | 54 | 1.0 | 5.0 | 0.00 | 0.00 | 0.00 | 77 | 1009.9 |
| 20260506091513 | 65 | 202 | 0.0 | 0.0 | 0.00 | 0.00 | 0.00 | 69 | 1008.2 |
| 20260506090029 | 65 | 66 | 1.0 | 3.0 | 0.00 | 0.00 | 0.00 | 77 | 1010.0 |
| 20260506090013 | 65 | 221 | 0.0 | 0.0 | 0.00 | 0.00 | 0.00 | 70 | 1008.3 |
| 20260506084529 | 64 | 79 | 0.0 | 4.0 | 0.00 | 0.00 | 0.00 | 77 | 1010.2 |
| 20260506084512 | 65 | 226 | 0.0 | 0.0 | 0.00 | 0.00 | 0.00 | 70 | 1008.5 |
| 20260506083026 | 64 | 77 | 0.0 | 1.0 | 0.00 | 0.00 | 0.00 | 77 | 1010.1 |
| 20260506083010 | 65 | 185 | 0.0 | 0.0 | 0.00 | 0.00 | 0.00 | 69 | 1008.4 |
| 20260506081524 | 65 | 73 | 0.0 | 2.0 | 0.00 | 0.00 | 0.00 | 76 | 1010.2 |
| 20260506081508 | 65 | 162 | 0.0 | 0.0 | 0.00 | 0.00 | 0.00 | 67 | 1008.5 |
| 20260506073019 | 66 | 75 | 0.0 | 2.0 | 0.00 | 0.00 | 0.00 | 72 | 1010.2 |
| 20260506073005 | 66 | 155 | 0.0 | 0.0 | 0.00 | 0.00 | 0.00 | 63 | 1008.5 |
| 20260506071514 | 67 | 115 | 0.0 | 3.0 | 0.00 | 0.00 | 0.00 | 71 | 1010.3 |
| 20260506071507 | 67 | 201 | 0.0 | 0.0 | 0.00 | 0.00 | 0.00 | 62 | 1008.6 |
| 20260506061603 | 67 | 178 | 0.0 | 0.0 | 0.00 | 0.00 | 0.00 | 60 | 1008.7 |
| 20260506061510 | 67 | 108 | 1.0 | 3.0 | 0.00 | 0.00 | 0.00 | 69 | 1010.3 |
| 20260506050107 | 68 | 75 | 1.0 | 4.0 | 0.00 | 0.00 | 0.00 | 64 | 1011.0 |
| 20260506044613 | 69 | 75 | 1.0 | 7.0 | 0.00 | 0.00 | 0.00 | 63 | 1010.8 |
| 20260506044559 | 69 | 179 | 0.0 | 0.0 | 0.00 | 0.00 | 0.00 | 55 | 1009.2 |
| 20260506043057 | 69 | 103 | 0.0 | 3.0 | 0.00 | 0.00 | 0.00 | 62 | 1011.0 |
| 20260506043050 | 69 | 176 | 0.0 | 0.0 | 0.00 | 0.00 | 0.00 | 53 | 1009.4 |
| 20260506041606 | 69 | 345 | 1.0 | 3.0 | 0.00 | 0.00 | 0.00 | 61 | 1010.9 |
| 20260506041553 | 69 | 207 | 0.0 | 0.0 | 0.00 | 0.00 | 0.00 | 52 | 1009.4 |
| 20260506040055 | 70 | 80 | 1.0 | 5.0 | 0.00 | 0.00 | 0.00 | 60 | 1010.8 |
| 20260506040046 | 70 | 203 | 0.0 | 0.0 | 0.00 | 0.00 | 0.00 | 51 | 1009.2 |
| 20260506034550 | 70 | 72 | 0.0 | 3.0 | 0.00 | 0.00 | 0.00 | 59 | 1010.9 |
| 20260506034545 | 70 | 184 | 0.0 | 0.0 | 0.00 | 0.00 | 0.01 | 50 | 1009.3 |
| 20260506033052 | 71 | 68 | 3.0 | 8.0 | 0.00 | 0.00 | 0.00 | 57 | 1010.8 |
| 20260506033043 | 71 | 189 | 0.0 | 0.0 | 0.00 | 0.00 | 0.01 | 48 | 1009.3 |
| 20260506031556 | 71 | 205 | 0.0 | 0.0 | 0.00 | 0.00 | 0.01 | 47 | 1009.2 |
| 20260506031548 | 71 | 82 | 2.0 | 5.0 | 0.00 | 0.00 | 0.00 | 57 | 1010.6 |
| 20260506030057 | 71 | 230 | 0.0 | 0.0 | 0.00 | 0.00 | 0.01 | 47 | 1009.1 |
| 20260506030049 | 71 | 60 | 1.0 | 6.0 | 0.00 | 0.00 | 0.00 | 56 | 1010.6 |
| 20260506024548 | 72 | 53 | 1.0 | 6.0 | 0.00 | 0.00 | 0.00 | 55 | 1010.6 |
| 20260506024543 | 72 | 205 | 0.0 | 0.0 | 0.00 | 0.00 | 0.01 | 46 | 1009.1 |
| 20260506023054 | 72 | 333 | 3.0 | 7.0 | 0.00 | 0.00 | 0.00 | 55 | 1010.7 |
| 20260506023042 | 72 | 196 | 0.0 | 0.0 | 0.00 | 0.00 | 0.01 | 45 | 1009.2 |
| 20260506021548 | 72 | 65 | 2.0 | 5.0 | 0.00 | 0.00 | 0.00 | 54 | 1010.6 |
| 20260506021542 | 72 | 161 | 0.0 | 0.0 | 0.00 | 0.00 | 0.01 | 45 | 1009.1 |
| 20260506020115 | 73 | 70 | 2.0 | 4.0 | 0.00 | 0.00 | 0.00 | 54 | 1010.5 |
| 20260506020041 | 73 | 260 | 0.0 | 0.0 | 0.00 | 0.00 | 0.01 | 45 | 1009.1 |
| 20260506014547 | 73 | 70 | 2.0 | 8.0 | 0.00 | 0.00 | 0.00 | 53 | 1010.5 |
| 20260506014541 | 73 | 219 | 0.0 | 0.0 | 0.00 | 0.00 | 0.01 | 44 | 1009.1 |
| 20260506013046 | 73 | 82 | 0.0 | 2.0 | 0.00 | 0.00 | 0.00 | 52 | 1010.3 |
| 20260506011548 | 75 | 82 | 1.0 | 7.0 | 0.00 | 0.00 | 0.00 | 49 | 1010.3 |
| 20260506011540 | 75 | 166 | 0.0 | 0.0 | 0.00 | 0.00 | 0.01 | 39 | 1008.8 |
| 20260506010045 | 77 | 93 | 1.0 | 5.0 | 0.00 | 0.00 | 0.00 | 42 | 1009.8 |
| 20260506010040 | 77 | 184 | 0.0 | 0.0 | 0.00 | 0.00 | 0.01 | 32 | 1008.4 |
| 20260506004608 | 77 | 159 | 0.0 | 0.0 | 0.00 | 0.00 | 0.01 | 31 | 1008.2 |
| 20260506004545 | 78 | 65 | 1.0 | 5.0 | 0.00 | 0.00 | 0.00 | 41 | 1009.6 |
| 20260506003046 | 78 | 131 | 1.0 | 6.0 | 0.00 | 0.00 | 0.00 | 39 | 1009.5 |
| 20260506003039 | 78 | 183 | 0.0 | 0.0 | 0.00 | 0.00 | 0.01 | 30 | 1008.1 |
| 20260506001549 | 79 | 66 | 2.0 | 4.0 | 0.00 | 0.00 | 0.00 | 38 | 1009.4 |
| 20260506001538 | 79 | 214 | 0.0 | 0.0 | 0.00 | 0.00 | 0.01 | 29 | 1008.1 |
| 20260506000056 | 80 | 72 | 2.0 | 7.0 | 0.00 | 0.00 | 0.00 | 36 | 1009.2 |
| 20260506000043 | 79 | 163 | 0.0 | 0.0 | 0.00 | 0.00 | 0.01 | 28 | 1007.9 |
| 20260505234605 | 80 | 214 | 0.0 | 0.0 | 0.00 | 0.00 | 0.01 | 25 | 1007.7 |
| 20260505234544 | 80 | 91 | 2.0 | 9.0 | 0.00 | 0.00 | 0.00 | 33 | 1009.1 |
| 20260505233048 | 81 | 63 | 2.0 | 8.0 | 0.00 | 0.00 | 0.00 | 32 | 1008.9 |
| 20260505233037 | 80 | 302 | 0.0 | 0.0 | 0.00 | 0.00 | 0.01 | 24 | 1007.6 |
| 20260505231550 | 81 | 51 | 3.0 | 9.0 | 0.00 | 0.00 | 0.00 | 31 | 1008.5 |
| 20260505231538 | 81 | 217 | 0.0 | 0.0 | 0.00 | 0.00 | 0.01 | 23 | 1007.3 |
| 20260505230046 | 81 | 63 | 3.0 | 12.0 | 0.00 | 0.00 | 0.00 | 29 | 1008.5 |
| 20260505230037 | 81 | 202 | 0.0 | 0.0 | 0.00 | 0.00 | 0.01 | 22 | 1007.1 |
| 20260505224547 | 82 | 102 | 2.0 | 7.0 | 0.00 | 0.00 | 0.00 | 28 | 1008.3 |
| 20260505224536 | 82 | 167 | 0.0 | 0.0 | 0.00 | 0.00 | 0.01 | 21 | 1007.0 |
| 20260505223042 | 82 | 195 | 0.0 | 0.0 | 0.00 | 0.00 | 0.01 | 20 | 1006.9 |
| 20260505221547 | 83 | 4 | 4.0 | 12.0 | 0.00 | 0.00 | 0.00 | 27 | 1008.2 |
| 20260505221539 | 82 | 193 | 0.0 | 0.0 | 0.00 | 0.00 | 0.01 | 20 | 1007.0 |
| 20260505220038 | 83 | 186 | 2.0 | 8.0 | 0.00 | 0.00 | 0.00 | 27 | 1008.0 |
| 20260505220035 | 83 | 224 | 0.0 | 0.0 | 0.00 | 0.00 | 0.01 | 20 | 1006.8 |
| 20260505214542 | 84 | 43 | 4.0 | 13.0 | 0.00 | 0.00 | 0.00 | 28 | 1007.8 |
| 20260505214540 | 83 | 208 | 0.0 | 0.0 | 0.00 | 0.00 | 0.01 | 21 | 1006.5 |
| 20260505213036 | 84 | 339 | 3.0 | 11.0 | 0.00 | 0.00 | 0.00 | 29 | 1007.8 |
| 20260505213034 | 83 | 212 | 0.0 | 0.0 | 0.00 | 0.00 | 0.01 | 22 | 1006.5 |
| 20260505211559 | 84 | 136 | 4.0 | 12.0 | 0.00 | 0.00 | 0.00 | 28 | 1007.6 |
| 20260505211533 | 84 | 203 | 0.0 | 0.0 | 0.00 | 0.00 | 0.01 | 21 | 1006.3 |
| 20260505210040 | 84 | 313 | 4.0 | 11.0 | 0.00 | 0.00 | 0.00 | 28 | 1007.8 |
| 20260505210033 | 84 | 241 | 0.0 | 0.0 | 0.00 | 0.00 | 0.01 | 22 | 1006.3 |
| 20260505204534 | 85 | 349 | 3.0 | 8.0 | 0.00 | 0.00 | 0.00 | 29 | 1007.7 |
| 20260505204531 | 84 | 224 | 0.0 | 0.0 | 0.00 | 0.00 | 0.01 | 22 | 1006.3 |
| 20260505203030 | 85 | 1 | 5.0 | 16.0 | 0.00 | 0.00 | 0.00 | 29 | 1007.6 |
| 20260505201531 | 85 | 345 | 2.0 | 9.0 | 0.00 | 0.00 | 0.00 | 29 | 1007.6 |
| 20260505200034 | 84 | 143 | 0.0 | 0.0 | 0.00 | 0.00 | 0.01 | 22 | 1006.5 |
| 20260505200028 | 86 | 208 | 4.0 | 13.0 | 0.00 | 0.00 | 0.00 | 29 | 1007.8 |
| 20260505194528 | 85 | 233 | 0.0 | 0.0 | 0.00 | 0.00 | 0.01 | 22 | 1006.5 |
| 20260505194526 | 87 | 333 | 5.0 | 8.0 | 0.00 | 0.00 | 0.00 | 28 | 1007.9 |
| 20260505193027 | 84 | 185 | 0.0 | 0.0 | 0.00 | 0.00 | 0.01 | 23 | 1006.9 |
| 20260505193023 | 86 | 63 | 2.0 | 9.0 | 0.00 | 0.00 | 0.00 | 30 | 1008.3 |
| 20260505191525 | 84 | 191 | 0.0 | 0.0 | 0.00 | 0.00 | 0.01 | 21 | 1007.2 |
| 20260505190024 | 84 | 131 | 0.0 | 0.0 | 0.00 | 0.00 | 0.01 | 23 | 1007.4 |
| 20260505190019 | 86 | 85 | 3.0 | 8.0 | 0.00 | 0.00 | 0.00 | 30 | 1008.7 |
| 20260505184527 | 85 | 194 | 0.0 | 0.0 | 0.00 | 0.00 | 0.01 | 24 | 1007.6 |
| 20260505184517 | 86 | 338 | 3.0 | 8.0 | 0.00 | 0.00 | 0.00 | 31 | 1009.2 |
| 20260505183038 | 84 | 244 | 0.0 | 0.0 | 0.00 | 0.00 | 0.01 | 26 | 1007.6 |
| 20260505183015 | 86 | 65 | 2.0 | 12.0 | 0.00 | 0.00 | 0.00 | 33 | 1009.1 |
| 20260505181520 | 85 | 231 | 0.0 | 0.0 | 0.00 | 0.00 | 0.01 | 25 | 1007.9 |
| 20260505181512 | 86 | 5 | 4.0 | 9.0 | 0.00 | 0.00 | 0.00 | 32 | 1009.3 |
| 20260505180019 | 85 | 215 | 0.0 | 0.0 | 0.00 | 0.00 | 0.01 | 25 | 1007.8 |
| 20260505180010 | 86 | 63 | 3.0 | 8.0 | 0.00 | 0.00 | 0.00 | 32 | 1009.5 |
| 20260505174517 | 85 | 170 | 0.0 | 0.0 | 0.00 | 0.00 | 0.01 | 27 | 1008.0 |
| 20260505174507 | 87 | 62 | 1.0 | 6.0 | 0.00 | 0.00 | 0.00 | 35 | 1009.5 |
| 20260505173020 | 84 | 168 | 0.0 | 0.0 | 0.00 | 0.00 | 0.01 | 27 | 1008.1 |
| 20260505173004 | 86 | 90 | 1.0 | 6.0 | 0.00 | 0.00 | 0.00 | 35 | 1009.7 |
| 20260505171605 | 85 | 79 | 2.0 | 5.0 | 0.00 | 0.00 | 0.00 | 37 | 1009.8 |
| 20260505171511 | 83 | 149 | 0.0 | 0.0 | 0.00 | 0.00 | 0.01 | 28 | 1008.2 |
| 20260505170057 | 84 | 88 | 1.0 | 5.0 | 0.00 | 0.00 | 0.00 | 37 | 1009.9 |
| 20260505170011 | 82 | 226 | 0.0 | 0.0 | 0.00 | 0.00 | 0.01 | 27 | 1008.2 |
| 20260505164554 | 83 | 120 | 2.0 | 8.0 | 0.00 | 0.00 | 0.00 | 38 | 1010.2 |
| 20260505164507 | 82 | 210 | 0.0 | 0.0 | 0.00 | 0.00 | 0.01 | 29 | 1008.5 |
| 20260505163053 | 84 | 117 | 1.0 | 3.0 | 0.00 | 0.00 | 0.00 | 38 | 1010.4 |
| 20260505163007 | 82 | 204 | 0.0 | 0.0 | 0.00 | 0.00 | 0.01 | 29 | 1008.6 |
| 20260505161551 | 83 | 68 | 0.0 | 4.0 | 0.00 | 0.00 | 0.00 | 39 | 1010.5 |
| 20260505161504 | 81 | 207 | 0.0 | 0.0 | 0.00 | 0.00 | 0.01 | 30 | 1008.8 |
| 20260505153057 | 78 | 211 | 0.0 | 0.0 | 0.00 | 0.00 | 0.01 | 35 | 1009.2 |
| 20260505153043 | 79 | 358 | 0.0 | 4.0 | 0.00 | 0.00 | 0.00 | 44 | 1011.0 |
| 20260505151553 | 77 | 197 | 0.0 | 0.0 | 0.00 | 0.00 | 0.01 | 36 | 1009.4 |
| 20260505151535 | 78 | 33 | 1.0 | 5.0 | 0.00 | 0.00 | 0.00 | 45 | 1011.2 |